| time (UTC) | temp C | wind direction | speed KPH | gust KPH | rain 1hr cm | rain 24hr cm | rain mn cm | humidity % | barometer mb |
| 20260505035648 | 16 | 168 | 1.6 | 6.4 | 0.00 | 0.00 | 0.00 | 59 | 1011.0 |
| 20260505035121 | 16 | 184 | 1.6 | 6.4 | 0.00 | 0.00 | 0.00 | 58 | 1010.9 |
| 20260505034620 | 16 | 217 | 0.0 | 4.8 | 0.00 | 0.00 | 0.00 | 58 | 1011.0 |
| 20260505034543 | 16 | 237 | 0.0 | 6.4 | 0.00 | 0.00 | 0.00 | 57 | 1010.9 |
| 20260505033810 | 16 | 165 | 0.0 | 6.4 | 0.00 | 0.00 | 0.00 | 57 | 1011.0 |
| 20260505033045 | 16 | 208 | 0.0 | 3.2 | 0.00 | 0.00 | 0.00 | 57 | 1011.0 |
| 20260505032543 | 16 | 208 | 0.0 | 3.2 | 0.00 | 0.00 | 0.00 | 56 | 1011.0 |
| 20260505032240 | 16 | 223 | 0.0 | 1.6 | 0.00 | 0.00 | 0.00 | 56 | 1011.1 |
| 20260505031511 | 16 | 224 | 0.0 | 8.0 | 0.00 | 0.00 | 0.00 | 55 | 1011.0 |
| 20260505031201 | 17 | 137 | 1.6 | 8.0 | 0.00 | 0.00 | 0.00 | 55 | 1011.0 |
| 20260505030438 | 17 | 228 | 1.6 | 9.7 | 0.00 | 0.00 | 0.00 | 55 | 1011.0 |
| 20260505025936 | 17 | 207 | 1.6 | 9.7 | 0.00 | 0.00 | 0.00 | 54 | 1010.9 |
| 20260505025408 | 17 | 224 | 1.6 | 6.4 | 0.00 | 0.00 | 0.00 | 55 | 1011.0 |
| 20260505024906 | 17 | 236 | 1.6 | 4.8 | 0.00 | 0.00 | 0.00 | 55 | 1011.0 |
| 20260505024603 | 17 | 219 | 1.6 | 4.8 | 0.00 | 0.00 | 0.00 | 55 | 1011.2 |
| 20260505023838 | 16 | 207 | 0.0 | 3.2 | 0.00 | 0.00 | 0.00 | 56 | 1011.2 |
| 20260505023537 | 16 | 200 | 0.0 | 3.2 | 0.00 | 0.00 | 0.00 | 56 | 1011.2 |
| 20260505023252 | 16 | 203 | 0.0 | 1.6 | 0.00 | 0.00 | 0.00 | 56 | 1011.3 |
| 20260505022305 | 17 | 191 | 0.0 | 4.8 | 0.00 | 0.00 | 0.00 | 55 | 1011.2 |
| 20260505021737 | 17 | 191 | 0.0 | 4.8 | 0.00 | 0.00 | 0.00 | 55 | 1011.2 |
| 20260505021235 | 17 | 227 | 0.0 | 3.2 | 0.00 | 0.00 | 0.00 | 56 | 1011.2 |
| 20260505020709 | 17 | 217 | 0.0 | 0.0 | 0.00 | 0.00 | 0.00 | 56 | 1011.2 |
| 20260505020140 | 17 | 217 | 0.0 | 0.0 | 0.00 | 0.00 | 0.00 | 55 | 1011.1 |
| 20260505015637 | 17 | 217 | 0.0 | 0.0 | 0.00 | 0.00 | 0.00 | 55 | 1011.1 |
| 20260505015136 | 17 | 217 | 0.0 | 0.0 | 0.00 | 0.00 | 0.00 | 55 | 1011.1 |
| 20260505014635 | 17 | 217 | 0.0 | 3.2 | 0.00 | 0.00 | 0.00 | 54 | 1010.9 |
| 20260505014144 | 17 | 217 | 0.0 | 3.2 | 0.00 | 0.00 | 0.00 | 53 | 1010.9 |
| 20260505013854 | 18 | 220 | 0.0 | 3.2 | 0.00 | 0.00 | 0.00 | 52 | 1011.0 |
| 20260505013116 | 18 | 207 | 0.0 | 3.2 | 0.00 | 0.00 | 0.00 | 52 | 1011.0 |
| 20260505012618 | 18 | 200 | 0.0 | 1.6 | 0.00 | 0.00 | 0.00 | 52 | 1010.9 |
| 20260505012050 | 18 | 200 | 1.6 | 4.8 | 0.00 | 0.00 | 0.00 | 52 | 1010.9 |
| 20260505011549 | 18 | 229 | 0.0 | 4.8 | 0.00 | 0.00 | 0.00 | 52 | 1010.8 |
| 20260505011028 | 18 | 212 | 0.0 | 3.2 | 0.00 | 0.00 | 0.00 | 52 | 1010.8 |
| 20260505010734 | 18 | 210 | 0.0 | 3.2 | 0.00 | 0.00 | 0.00 | 51 | 1010.6 |
| 20260505005927 | 19 | 229 | 1.6 | 6.4 | 0.00 | 0.00 | 0.00 | 50 | 1010.6 |
| 20260505005407 | 19 | 231 | 1.6 | 9.7 | 0.00 | 0.00 | 0.00 | 49 | 1010.5 |
| 20260505004907 | 19 | 209 | 3.2 | 9.7 | 0.00 | 0.00 | 0.00 | 49 | 1010.5 |
| 20260505004349 | 19 | 153 | 3.2 | 12.9 | 0.00 | 0.00 | 0.00 | 48 | 1010.4 |
| 20260505003851 | 19 | 179 | 1.6 | 8.0 | 0.00 | 0.00 | 0.00 | 48 | 1010.5 |
| 20260505003327 | 19 | 230 | 1.6 | 6.4 | 0.00 | 0.00 | 0.00 | 48 | 1010.4 |
| 20260505002812 | 20 | 221 | 1.6 | 11.3 | 0.00 | 0.00 | 0.00 | 48 | 1010.3 |
| 20260505002313 | 20 | 217 | 3.2 | 11.3 | 0.00 | 0.00 | 0.00 | 47 | 1010.4 |
| 20260505001804 | 20 | 259 | 3.2 | 9.7 | 0.00 | 0.00 | 0.00 | 46 | 1010.3 |
| 20260505001302 | 20 | 224 | 1.6 | 6.4 | 0.00 | 0.00 | 0.00 | 45 | 1010.3 |
| 20260505001029 | 20 | 227 | 1.6 | 6.4 | 0.00 | 0.00 | 0.00 | 45 | 1010.1 |
| 20260505000259 | 20 | 244 | 1.6 | 4.8 | 0.00 | 0.00 | 0.00 | 44 | 1010.1 |
| 20260505000021 | 21 | 252 | 1.6 | 9.7 | 0.00 | 0.00 | 0.00 | 42 | 1010.0 |
| 20260504235259 | 21 | 199 | 3.2 | 9.7 | 0.00 | 0.00 | 0.00 | 41 | 1010.0 |
| 20260504234736 | 21 | 233 | 1.6 | 6.4 | 0.00 | 0.00 | 0.00 | 40 | 1010.0 |
| 20260504234215 | 21 | 203 | 1.6 | 8.0 | 0.00 | 0.00 | 0.00 | 39 | 1010.0 |
| 20260504233941 | 21 | 177 | 1.6 | 8.0 | 0.00 | 0.00 | 0.00 | 38 | 1010.0 |
| 20260504233213 | 21 | 234 | 3.2 | 8.0 | 0.00 | 0.00 | 0.00 | 38 | 1010.0 |
| 20260504232650 | 22 | 84 | 3.2 | 12.9 | 0.00 | 0.00 | 0.00 | 37 | 1010.0 |
| 20260504232128 | 22 | 221 | 3.2 | 6.4 | 0.00 | 0.00 | 0.00 | 38 | 1010.0 |
| 20260504231559 | 22 | 192 | 3.2 | 6.4 | 0.00 | 0.00 | 0.00 | 37 | 1010.0 |
| 20260504231039 | 22 | 193 | 3.2 | 11.3 | 0.00 | 0.00 | 0.00 | 37 | 1009.9 |
| 20260504230514 | 22 | 184 | 3.2 | 11.3 | 0.00 | 0.00 | 0.00 | 36 | 1010.0 |
| 20260504230009 | 22 | 139 | 4.8 | 16.1 | 0.00 | 0.00 | 0.00 | 36 | 1010.0 |
| 20260504225507 | 22 | 210 | 4.8 | 16.1 | 0.00 | 0.00 | 0.00 | 36 | 1009.9 |
| 20260504224940 | 22 | 201 | 3.2 | 12.9 | 0.00 | 0.00 | 0.00 | 36 | 1009.9 |
| 20260504224706 | 22 | 180 | 1.6 | 9.7 | 0.00 | 0.00 | 0.00 | 37 | 1010.0 |
| 20260504223910 | 22 | 229 | 1.6 | 8.0 | 0.00 | 0.00 | 0.00 | 36 | 1009.9 |
| 20260504223341 | 23 | 204 | 3.2 | 12.9 | 0.00 | 0.00 | 0.00 | 35 | 1010.0 |
| 20260504222840 | 23 | 167 | 4.8 | 20.9 | 0.00 | 0.00 | 0.00 | 35 | 1010.0 |
| 20260504222313 | 23 | 198 | 3.2 | 11.3 | 0.00 | 0.00 | 0.00 | 35 | 1009.9 |
| 20260504221748 | 23 | 158 | 3.2 | 12.9 | 0.00 | 0.00 | 0.00 | 33 | 1010.0 |
| 20260504221449 | 23 | 204 | 3.2 | 12.9 | 0.00 | 0.00 | 0.00 | 33 | 1010.0 |
| 20260504220942 | 23 | 16 | 3.2 | 12.9 | 0.00 | 0.00 | 0.00 | 33 | 1010.0 |
| 20260504220152 | 23 | 141 | 3.2 | 12.9 | 0.00 | 0.00 | 0.00 | 34 | 1010.1 |
| 20260504220112 | 23 | 266 | 3.2 | 11.3 | 0.00 | 0.00 | 0.00 | 33 | 1010.1 |
| 20260504215059 | 23 | 155 | 3.2 | 17.7 | 0.00 | 0.00 | 0.00 | 33 | 1010.1 |
| 20260504214531 | 23 | 221 | 4.8 | 14.5 | 0.00 | 0.00 | 0.00 | 33 | 1010.1 |
| 20260504214031 | 23 | 143 | 4.8 | 14.5 | 0.00 | 0.00 | 0.00 | 33 | 1010.1 |
| 20260504213501 | 23 | 295 | 4.8 | 14.5 | 0.00 | 0.00 | 0.00 | 34 | 1010.3 |
| 20260504213001 | 23 | 317 | 3.2 | 14.5 | 0.00 | 0.00 | 0.00 | 33 | 1010.3 |
| 20260504212431 | 23 | 236 | 4.8 | 14.5 | 0.00 | 0.00 | 0.00 | 35 | 1010.1 |
| 20260504211930 | 23 | 222 | 4.8 | 20.9 | 0.00 | 0.00 | 0.00 | 35 | 1010.3 |
| 20260504211401 | 23 | 289 | 3.2 | 11.3 | 0.00 | 0.00 | 0.00 | 33 | 1010.3 |
| 20260504210900 | 23 | 222 | 3.2 | 16.1 | 0.00 | 0.00 | 0.00 | 33 | 1010.3 |
| 20260504210618 | 23 | 208 | 3.2 | 16.1 | 0.00 | 0.00 | 0.00 | 34 | 1010.1 |
| 20260504205831 | 23 | 312 | 3.2 | 16.1 | 0.00 | 0.00 | 0.00 | 33 | 1010.0 |
| 20260504205329 | 23 | 193 | 3.2 | 16.1 | 0.00 | 0.00 | 0.00 | 34 | 1010.0 |
| 20260504205035 | 23 | 201 | 3.2 | 9.7 | 0.00 | 0.00 | 0.00 | 33 | 1010.3 |
| 20260504204259 | 23 | 219 | 4.8 | 16.1 | 0.00 | 0.00 | 0.00 | 32 | 1010.4 |
| 20260504203731 | 23 | 234 | 4.8 | 16.1 | 0.00 | 0.00 | 0.00 | 32 | 1010.4 |
| 20260504203228 | 23 | 283 | 3.2 | 12.9 | 0.00 | 0.00 | 0.00 | 32 | 1010.5 |
| 20260504202702 | 23 | 316 | 4.8 | 16.1 | 0.00 | 0.00 | 0.00 | 32 | 1010.4 |
| 20260504202133 | 23 | 160 | 6.4 | 16.1 | 0.00 | 0.00 | 0.00 | 33 | 1010.5 |
| 20260504201634 | 23 | 321 | 4.8 | 14.5 | 0.00 | 0.00 | 0.00 | 32 | 1010.7 |
| 20260504201135 | 23 | 269 | 4.8 | 17.7 | 0.00 | 0.00 | 0.00 | 32 | 1010.6 |
| 20260504200635 | 23 | 231 | 6.4 | 17.7 | 0.00 | 0.00 | 0.00 | 32 | 1010.7 |
| 20260504200133 | 23 | 288 | 4.8 | 20.9 | 0.00 | 0.00 | 0.00 | 34 | 1010.8 |
| 20260504195904 | 22 | 245 | 6.4 | 20.9 | 0.00 | 0.00 | 0.00 | 34 | 1010.8 |
| 20260504195109 | 22 | 175 | 6.4 | 19.3 | 0.00 | 0.00 | 0.00 | 33 | 1010.9 |
| 20260504194606 | 23 | 179 | 4.8 | 19.3 | 0.00 | 0.00 | 0.00 | 32 | 1010.9 |
| 20260504194038 | 23 | 1 | 4.8 | 19.3 | 0.00 | 0.00 | 0.00 | 32 | 1011.0 |
| 20260504193757 | 23 | 197 | 3.2 | 19.3 | 0.00 | 0.00 | 0.00 | 33 | 1011.0 |
| 20260504193235 | 23 | 240 | 3.2 | 14.5 | 0.00 | 0.00 | 0.00 | 33 | 1011.0 |
| 20260504192507 | 22 | 232 | 4.8 | 14.5 | 0.00 | 0.00 | 0.00 | 33 | 1011.2 |
| 20260504191938 | 22 | 338 | 4.8 | 14.5 | 0.00 | 0.00 | 0.00 | 32 | 1011.4 |
| 20260504191436 | 22 | 75 | 4.8 | 9.7 | 0.00 | 0.00 | 0.00 | 33 | 1011.4 |
| 20260504190911 | 22 | 224 | 4.8 | 16.1 | 0.00 | 0.00 | 0.00 | 34 | 1011.4 |
| 20260504190606 | 22 | 150 | 3.2 | 12.9 | 0.00 | 0.00 | 0.00 | 35 | 1011.4 |
| 20260504185842 | 22 | 234 | 4.8 | 12.9 | 0.00 | 0.00 | 0.00 | 33 | 1011.4 |
| 20260504185317 | 22 | 244 | 4.8 | 12.9 | 0.00 | 0.00 | 0.00 | 32 | 1011.5 |
| 20260504184751 | 22 | 239 | 4.8 | 12.9 | 0.00 | 0.00 | 0.00 | 33 | 1011.5 |
| 20260504184221 | 22 | 335 | 3.2 | 11.3 | 0.00 | 0.00 | 0.00 | 32 | 1011.6 |
| 20260504183721 | 22 | 276 | 3.2 | 12.9 | 0.00 | 0.00 | 0.00 | 32 | 1011.7 |
| 20260504183154 | 22 | 245 | 3.2 | 12.9 | 0.00 | 0.00 | 0.00 | 34 | 1011.7 |
| 20260504182625 | 22 | 236 | 3.2 | 16.1 | 0.00 | 0.00 | 0.00 | 35 | 1011.8 |
| 20260504182101 | 22 | 174 | 4.8 | 17.7 | 0.00 | 0.00 | 0.00 | 33 | 1011.9 |
| 20260504181557 | 22 | 217 | 4.8 | 17.7 | 0.00 | 0.00 | 0.00 | 31 | 1012.0 |
| 20260504181053 | 22 | 275 | 3.2 | 11.3 | 0.00 | 0.00 | 0.00 | 33 | 1012.1 |
| 20260504180751 | 22 | 204 | 4.8 | 11.3 | 0.00 | 0.00 | 0.00 | 34 | 1012.2 |
| 20260504180028 | 22 | 196 | 4.8 | 17.7 | 0.00 | 0.00 | 0.00 | 35 | 1012.2 |
| 20260504175525 | 22 | 216 | 4.8 | 17.7 | 0.00 | 0.00 | 0.00 | 32 | 1012.2 |
| 20260504175026 | 22 | 139 | 3.2 | 11.3 | 0.00 | 0.00 | 0.00 | 32 | 1012.2 |
| 20260504174459 | 22 | 13 | 3.2 | 8.0 | 0.00 | 0.00 | 0.00 | 35 | 1012.4 |
| 20260504173958 | 22 | 303 | 4.8 | 17.7 | 0.00 | 0.00 | 0.00 | 33 | 1012.3 |
| 20260504173432 | 22 | 176 | 4.8 | 17.7 | 0.00 | 0.00 | 0.00 | 32 | 1012.4 |
| 20260504172931 | 22 | 291 | 4.8 | 14.5 | 0.00 | 0.00 | 0.00 | 32 | 1012.6 |
| 20260504172651 | 22 | 212 | 3.2 | 12.9 | 0.00 | 0.00 | 0.00 | 32 | 1012.6 |
| 20260504171940 | 22 | 311 | 3.2 | 9.7 | 0.00 | 0.00 | 0.00 | 33 | 1012.7 |
| 20260504171420 | 22 | 323 | 3.2 | 8.0 | 0.00 | 0.00 | 0.00 | 33 | 1012.8 |
| 20260504170912 | 22 | 354 | 3.2 | 11.3 | 0.00 | 0.00 | 0.00 | 32 | 1012.8 |
| 20260504170403 | 22 | 122 | 3.2 | 9.7 | 0.00 | 0.00 | 0.00 | 33 | 1012.8 |
| 20260504160135 | 20 | 202 | 4.8 | 11.3 | 0.00 | 0.00 | 0.00 | 34 | 1013.9 |
| 20260504150913 | 20 | 197 | 1.6 | 8.0 | 0.00 | 0.00 | 0.00 | 42 | 1014.0 |
| 20260504150349 | 19 | 265 | 1.6 | 9.7 | 0.00 | 0.00 | 0.00 | 40 | 1014.1 |
| 20260504140534 | 17 | 102 | 3.2 | 12.9 | 0.00 | 0.00 | 0.00 | 53 | 1014.2 |
| 20260504110238 | 9 | 220 | 0.0 | 1.6 | 0.00 | 0.00 | 0.00 | 78 | 1015.2 |
| 20260504100536 | 7 | 258 | 0.0 | 1.6 | 0.00 | 0.00 | 0.00 | 76 | 1015.4 |
| 20260504081158 | 7 | 241 | 0.0 | 0.0 | 0.00 | 0.00 | 0.00 | 72 | 1015.4 |
| 20260504080635 | 7 | 241 | 0.0 | 0.0 | 0.00 | 0.00 | 0.00 | 71 | 1015.4 |
| 20260504080336 | 8 | 241 | 0.0 | 0.0 | 0.00 | 0.00 | 0.00 | 70 | 1015.2 |
| 20260504060113 | 10 | 267 | 1.6 | 4.8 | 0.00 | 0.00 | 0.00 | 64 | 1014.9 |
| 20260504050417 | 10 | 308 | 0.0 | 3.2 | 0.00 | 0.00 | 0.00 | 59 | 1015.0 |
| 20260504045913 | 10 | 295 | 0.0 | 3.2 | 0.00 | 0.00 | 0.00 | 58 | 1015.0 |
| 20260504045348 | 10 | 323 | 0.0 | 3.2 | 0.00 | 0.00 | 0.00 | 57 | 1015.1 |
| 20260504045041 | 10 | 314 | 0.0 | 4.8 | 0.00 | 0.00 | 0.00 | 56 | 1015.1 |
| 20260504044520 | 10 | 323 | 0.0 | 3.2 | 0.00 | 0.00 | 0.00 | 54 | 1015.1 |
| 20260504043727 | 10 | 296 | 0.0 | 3.2 | 0.00 | 0.00 | 0.00 | 54 | 1015.0 |
| 20260504043227 | 10 | 299 | 0.0 | 1.6 | 0.00 | 0.00 | 0.00 | 53 | 1014.9 |
| 20260504042658 | 10 | 307 | 0.0 | 0.0 | 0.00 | 0.00 | 0.00 | 53 | 1014.9 |
| 20260504042156 | 10 | 299 | 0.0 | 1.6 | 0.00 | 0.00 | 0.00 | 52 | 1014.9 |
| 20260504041643 | 10 | 299 | 0.0 | 1.6 | 0.00 | 0.00 | 0.00 | 52 | 1014.8 |
| 20260504041125 | 10 | 299 | 0.0 | 1.6 | 0.00 | 0.00 | 0.00 | 51 | 1014.8 |
| 20260504040621 | 10 | 298 | 0.0 | 1.6 | 0.00 | 0.00 | 0.00 | 51 | 1014.8 |